Stations météo

réclame
Mon MeteoGroup
Falsterbo, Suède (2616): Température de l'air & dewpoint: 13.11.2017 18:00:00 - 19.11.2017 18:00:00 (CET)Falsterbo, Suède (2616): Vitesse du vent: 13.11.2017 18:00:00 - 19.11.2017 18:00:00 (CET)Falsterbo, Suède (2616): Direction du vent: 13.11.2017 18:00:00 - 19.11.2017 18:00:00 (CET)Falsterbo, Suède (2616): reduced air pressure: 13.11.2017 18:00:00 - 19.11.2017 18:00:00 (CET)Falsterbo, Suède (2616): visibility: 13.11.2017 18:00:00 - 19.11.2017 18:00:00 (CET)
Date & Time tt [°C] td [°C] ff [km/h] ff [knt] dd ppp [hPa] vv [km]
19.11.2017 18:00:00 - - - - - - -
19.11.2017 17:00:00 - - - - - - -
19.11.2017 16:00:00 4,0 2,4 58 31 NW 999,8 22
19.11.2017 15:00:00 - - - - - - -
19.11.2017 14:00:00 - - - - - - -
19.11.2017 13:00:00 4,9 3,1 58 31 NW 997,8 35
19.11.2017 12:00:00 - - - - - - -
19.11.2017 11:00:00 - - - - - - -
19.11.2017 10:00:00 6,0 3,3 50 27 WNW 996,3 30
19.11.2017 09:00:00 - - - - - - -
19.11.2017 08:00:00 - - - - - - -
19.11.2017 07:00:00 6,1 4,1 43 23 W 995,2 27
19.11.2017 06:00:00 - - - - - - -
19.11.2017 05:00:00 - - - - - - -
19.11.2017 04:00:00 5,5 3,7 50 27 W 996,9 20
19.11.2017 03:00:00 - - - - - - -
19.11.2017 02:00:00 - - - - - - -
19.11.2017 01:00:00 6,3 3,6 50 27 W 998,9 30
19.11.2017 00:00:00 - - - - - - -
18.11.2017 23:00:00 - - - - - - -
18.11.2017 22:00:00 5,5 3,5 54 29 W 1001,1 35
18.11.2017 21:00:00 - - - - - - -
18.11.2017 20:00:00 - - - - - - -
18.11.2017 19:00:00 5,8 3,3 47 25 W 1001,8 35
18.11.2017 18:00:00 - - - - - - -
18.11.2017 17:00:00 - - - - - - -
18.11.2017 16:00:00 5,8 2,8 43 23 W 1002,8 60
18.11.2017 15:00:00 - - - - - - -
18.11.2017 14:00:00 - - - - - - -
18.11.2017 13:00:00 5,5 3,2 43 23 W 1002,9 26
18.11.2017 12:00:00 - - - - - - -
18.11.2017 11:00:00 - - - - - - -
18.11.2017 10:00:00 6,8 5,4 50 27 SW 1004,7 12
18.11.2017 09:00:00 - - - - - - -
18.11.2017 08:00:00 - - - - - - -
18.11.2017 07:00:00 7,0 5,6 50 27 SW 1008,2 25
18.11.2017 06:00:00 - - - - - - -
18.11.2017 05:00:00 - - - - - - -
18.11.2017 04:00:00 6,9 5,1 47 25 SW 1011,7 30
18.11.2017 03:00:00 - - - - - - -
18.11.2017 02:00:00 - - - - - - -
18.11.2017 01:00:00 7,1 5,2 47 25 WSW 1014,9 30
18.11.2017 00:00:00 - - - - - - -
17.11.2017 23:00:00 - - - - - - -
17.11.2017 22:00:00 7,2 5,2 36 19 SW 1017,4 30
17.11.2017 21:00:00 - - - - - - -
17.11.2017 20:00:00 - - - - - - -
17.11.2017 19:00:00 7,3 5,1 36 19 WSW 1018,9 30
17.11.2017 18:00:00 - - - - - - -
17.11.2017 17:00:00 - - - - - - -
17.11.2017 16:00:00 7,7 4,6 32 18 WSW 1020,2 28
17.11.2017 15:00:00 - - - - - - -
17.11.2017 14:00:00 - - - - - - -
17.11.2017 13:00:00 7,9 4,5 36 19 W 1021,1 23
17.11.2017 12:00:00 - - - - - - -
17.11.2017 11:00:00 - - - - - - -
17.11.2017 10:00:00 6,8 4,5 40 21 W 1020,8 18
17.11.2017 09:00:00 - - - - - - -
17.11.2017 08:00:00 - - - - - - -
17.11.2017 07:00:00 6,5 4,2 40 21 W 1019,6 30
17.11.2017 06:00:00 - - - - - - -
17.11.2017 05:00:00 - - - - - - -
17.11.2017 04:00:00 7,1 4,7 40 21 WNW 1018,4 40
17.11.2017 03:00:00 - - - - - - -
17.11.2017 02:00:00 - - - - - - -
17.11.2017 01:00:00 7,7 6,0 36 19 NW 1016,8 45
17.11.2017 00:00:00 - - - - - - -
16.11.2017 23:00:00 - - - - - - -
16.11.2017 22:00:00 8,5 7,7 36 19 SW 1016,1 5
16.11.2017 21:00:00 - - - - - - -
16.11.2017 20:00:00 - - - - - - -
16.11.2017 19:00:00 8,6 7,5 36 19 SSW 1017,3 10
16.11.2017 18:00:00 - - - - - - -
16.11.2017 17:00:00 - - - - - - -
16.11.2017 16:00:00 8,5 7,6 36 19 SSW 1019,0 10
16.11.2017 15:00:00 - - - - - - -
16.11.2017 14:00:00 - - - - - - -
16.11.2017 13:00:00 8,2 7,6 29 16 SSW 1021,2 10
16.11.2017 12:00:00 - - - - - - -
16.11.2017 11:00:00 - - - - - - -
16.11.2017 10:00:00 7,9 7,3 25 14 SSW 1023,0 12
16.11.2017 09:00:00 - - - - - - -
16.11.2017 08:00:00 - - - - - - -
16.11.2017 07:00:00 5,5 4,9 14 8 SSW 1023,3 15
16.11.2017 06:00:00 - - - - - - -
16.11.2017 05:00:00 - - - - - - -
16.11.2017 04:00:00 5,6 4,9 11 6 SW 1023,9 22
16.11.2017 03:00:00 - - - - - - -
16.11.2017 02:00:00 - - - - - - -
16.11.2017 01:00:00 6,6 6,0 14 8 W 1023,9 15
16.11.2017 00:00:00 - - - - - - -
15.11.2017 23:00:00 - - - - - - -
15.11.2017 22:00:00 7,2 6,6 22 12 W 1024,0 13
15.11.2017 21:00:00 - - - - - - -
15.11.2017 20:00:00 - - - - - - -
15.11.2017 19:00:00 7,7 7,1 22 12 W 1023,0 18
15.11.2017 18:00:00 - - - - - - -
15.11.2017 17:00:00 - - - - - - -
15.11.2017 16:00:00 8,3 7,5 25 14 WSW 1022,0 20
15.11.2017 15:00:00 - - - - - - -
15.11.2017 14:00:00 - - - - - - -
15.11.2017 13:00:00 8,5 7,3 25 14 WSW 1021,5 25
15.11.2017 12:00:00 - - - - - - -
15.11.2017 11:00:00 - - - - - - -
15.11.2017 10:00:00 7,9 6,7 29 16 WSW 1020,9 23
15.11.2017 09:00:00 - - - - - - -
15.11.2017 08:00:00 - - - - - - -
15.11.2017 07:00:00 7,5 6,8 32 18 WSW 1019,9 13
15.11.2017 06:00:00 - - - - - - -
15.11.2017 05:00:00 - - - - - - -
15.11.2017 04:00:00 7,0 5,8 29 16 W 1019,1 30
15.11.2017 03:00:00 - - - - - - -
15.11.2017 02:00:00 - - - - - - -
15.11.2017 01:00:00 7,2 6,1 36 19 W 1018,5 28
15.11.2017 00:00:00 - - - - - - -
14.11.2017 23:00:00 - - - - - - -
14.11.2017 22:00:00 7,9 6,2 36 19 W 1017,0 28
14.11.2017 21:00:00 - - - - - - -
14.11.2017 20:00:00 - - - - - - -
14.11.2017 19:00:00 8,4 6,5 43 23 W 1014,4 30
14.11.2017 18:00:00 - - - - - - -
14.11.2017 17:00:00 - - - - - - -
14.11.2017 16:00:00 7,3 6,4 47 25 WSW 1012,5 14
14.11.2017 15:00:00 - - - - - - -
14.11.2017 14:00:00 - - - - - - -
14.11.2017 13:00:00 6,5 5,6 43 23 SW 1012,7 14
14.11.2017 12:00:00 - - - - - - -
14.11.2017 11:00:00 - - - - - - -
14.11.2017 10:00:00 6,7 4,5 40 21 SW 1015,7 19
14.11.2017 09:00:00 - - - - - - -
14.11.2017 08:00:00 - - - - - - -
14.11.2017 07:00:00 6,0 3,7 32 18 W 1016,0 50
14.11.2017 06:00:00 - - - - - - -
14.11.2017 05:00:00 - - - - - - -
14.11.2017 04:00:00 5,9 3,4 32 18 W 1016,2 60
14.11.2017 03:00:00 - - - - - - -
14.11.2017 02:00:00 - - - - - - -
14.11.2017 01:00:00 5,5 2,7 25 14 W 1016,9 60
14.11.2017 00:00:00 - - - - - - -
13.11.2017 23:00:00 - - - - - - -
13.11.2017 22:00:00 5,1 2,5 18 10 W 1016,5 60
13.11.2017 21:00:00 - - - - - - -
13.11.2017 20:00:00 - - - - - - -
13.11.2017 19:00:00 4,5 0,6 18 10 NNW 1015,8 2,5
13.11.2017 18:00:00 - - - - - - -

tt = Température de l'air
td = dewpoint
ff = Vitesse du vent
dd = Direction du vent
ppp = reduced air pressure
vv = visibility

stations d'obs. à proximité